timestamp,surface_pressure_avg,surface_temp_avg,battery_voltage,lat,long
2019-06-29 00:00:00+00:00,246.6064,16.64,12.97,47.84626,-54.09684
2019-06-29 00:10:00+00:00,243.1148,17.21,12.89,47.84626,-54.09684
2019-06-29 00:20:00+00:00,238.6431,17.47,12.97,47.84626,-54.09684
2019-06-29 00:30:00+00:00,235.0848,17.58,12.97,47.84626,-54.09684
2019-06-29 00:40:00+00:00,233.1963,17.6,12.97,47.84626,-54.09684
2019-06-29 00:50:00+00:00,227.7514,17.68,12.97,47.84626,-54.09684
2019-06-29 01:00:00+00:00,222.6714,17.8,12.97,47.84626,-54.09684
2019-06-29 01:10:00+00:00,222.8681,17.9,12.89,47.84626,-54.09684
2019-06-29 01:20:00+00:00,220.6064,17.87,12.97,47.84626,-54.09684
2019-06-29 01:30:00+00:00,213.3431,17.89,12.97,47.84626,-54.09684
2019-06-29 01:40:00+00:00,210.4281,17.8,12.97,47.84626,-54.09684
2019-06-29 01:50:00+00:00,211.0065,17.8,12.97,47.84626,-54.09684
2019-06-29 02:00:00+00:00,206.8165,17.8,12.89,47.84626,-54.09684
2019-06-29 02:10:00+00:00,204.653,17.87,12.81,47.84626,-54.09684
2019-06-29 02:20:00+00:00,207.0698,17.8,12.89,47.84626,-54.09684
2019-06-29 02:30:00+00:00,204.0731,17.83,12.89,47.84626,-54.09684
2019-06-29 02:40:00+00:00,201.4332,17.8,12.97,47.84626,-54.09684
2019-06-29 02:50:00+00:00,206.8615,17.7,12.97,47.84626,-54.09684
2019-06-29 03:00:00+00:00,210.3998,17.3,12.89,47.84626,-54.09684
2019-06-29 03:10:00+00:00,208.9214,16.36,12.81,47.84626,-54.09684
2019-06-29 03:20:00+00:00,211.3398,16.49,12.89,47.84626,-54.09684
2019-06-29 03:30:00+00:00,215.1381,15.95,12.89,47.84626,-54.09684
2019-06-29 03:40:00+00:00,213.2681,14.6,12.89,47.84626,-54.09684
2019-06-29 03:50:00+00:00,211.4165,14.0,12.89,47.84626,-54.09684
2019-06-29 04:00:00+00:00,214.6731,14.29,12.89,47.84626,-54.09684
2019-06-29 04:10:00+00:00,218.6698,14.72,12.81,47.84626,-54.09684
2019-06-29 04:20:00+00:00,218.5915,13.03,12.89,47.84626,-54.09684
2019-06-29 04:30:00+00:00,221.1748,12.2,12.89,47.84626,-54.09684
2019-06-29 04:40:00+00:00,228.9164,12.19,12.89,47.84626,-54.09684
2019-06-29 04:50:00+00:00,233.173,12.12,12.89,47.84626,-54.09684
2019-06-29 05:00:00+00:00,232.0299,11.15,12.81,47.84626,-54.09684
2019-06-29 05:10:00+00:00,234.1997,10.85,12.73,47.84626,-54.09684
2019-06-29 05:20:00+00:00,240.9147,10.99,12.81,47.84626,-54.09684
2019-06-29 05:30:00+00:00,245.748,10.32,12.89,47.84626,-54.09684
2019-06-29 05:40:00+00:00,249.6097,9.51,12.89,47.84626,-54.09684
2019-06-29 05:50:00+00:00,255.5514,9.46,12.89,47.84626,-54.09684
2019-06-29 06:00:00+00:00,264.7381,9.5,12.81,47.84626,-54.09684
2019-06-29 06:10:00+00:00,271.7714,9.3,12.73,47.84626,-54.09684
2019-06-29 06:20:00+00:00,276.9247,8.9,12.81,47.84626,-54.09684
2019-06-29 06:30:00+00:00,282.3881,8.99,12.81,47.84626,-54.09684
2019-06-29 06:40:00+00:00,290.4464,9.0,12.81,47.84626,-54.09684
2019-06-29 06:50:00+00:00,295.9614,8.9,12.89,47.84626,-54.09684
2019-06-29 07:00:00+00:00,299.858,8.8,12.81,47.84626,-54.09684
2019-06-29 07:10:00+00:00,304.1246,8.7,12.73,47.84626,-54.09684
2019-06-29 07:20:00+00:00,307.5399,8.5,12.81,47.84626,-54.09684
2019-06-29 07:30:00+00:00,307.5864,8.3,12.81,47.84626,-54.09684
2019-06-29 07:40:00+00:00,309.0046,8.2,12.81,47.84626,-54.09684
2019-06-29 07:50:00+00:00,312.0665,8.09,12.81,47.84626,-54.09684
2019-06-29 08:00:00+00:00,313.0349,8.0,12.81,47.84626,-54.09684
2019-06-29 08:10:00+00:00,311.4663,8.0,12.73,47.84626,-54.09684
2019-06-29 08:20:00+00:00,310.4596,8.0,12.81,47.84626,-54.09684
2019-06-29 08:30:00+00:00,309.778,8.0,12.89,47.84626,-54.09684
2019-06-29 08:40:00+00:00,309.0082,8.0,12.89,47.84626,-54.09684
2019-06-29 08:50:00+00:00,309.5364,8.0,12.97,47.84626,-54.09684
2019-06-29 09:00:00+00:00,310.5365,8.0,12.97,47.84626,-54.09684
2019-06-29 09:10:00+00:00,308.2747,8.0,12.89,47.84626,-54.09684
2019-06-29 09:20:00+00:00,305.5366,8.0,13.05,47.84626,-54.09684
2019-06-29 09:30:00+00:00,306.7814,8.0,13.21,47.84626,-54.09684
2019-06-29 09:40:00+00:00,307.463,8.0,13.37,47.84626,-54.09684
2019-06-29 09:50:00+00:00,302.8914,8.04,13.6,47.84626,-54.09684
2019-06-29 10:00:00+00:00,298.6747,8.1,13.68,47.84626,-54.09684
2019-06-29 10:10:00+00:00,298.0481,8.19,13.53,47.84626,-54.09684
2019-06-29 10:20:00+00:00,295.6397,8.2,13.84,47.84626,-54.09684
2019-06-29 10:30:00+00:00,294.8014,8.2,14.0,47.84626,-54.09684
2019-06-29 10:40:00+00:00,293.463,8.1,14.24,47.84626,-54.09684
2019-06-29 10:50:00+00:00,292.1047,8.1,14.16,47.84626,-54.09684
2019-06-29 11:00:00+00:00,287.6764,8.21,14.32,47.84626,-54.09684
2019-06-29 11:10:00+00:00,284.163,8.3,14.32,47.84626,-54.09684
2019-06-29 11:20:00+00:00,276.0614,8.33,14.56,47.84626,-54.09684
2019-06-29 11:30:00+00:00,265.7448,8.5,14.56,47.84626,-54.09684
2019-06-29 11:40:00+00:00,257.3114,8.66,14.64,47.84626,-54.09684
2019-06-29 11:50:00+00:00,254.4831,8.7,14.64,47.84626,-54.09684
2019-06-29 12:00:00+00:00,248.4331,8.8,14.48,47.84626,-54.09684
2019-06-29 12:10:00+00:00,239.7498,8.99,14.48,47.84626,-54.09684
2019-06-29 12:20:00+00:00,233.6714,9.35,14.64,47.84626,-54.09684
2019-06-29 12:30:00+00:00,228.8114,9.82,14.56,47.84626,-54.09684
2019-06-29 12:40:00+00:00,224.5281,10.1,14.64,47.84626,-54.09684
2019-06-29 12:50:00+00:00,223.093,10.0,14.56,47.84626,-54.09684
2019-06-29 13:00:00+00:00,221.0014,9.99,14.48,47.84626,-54.09684
2019-06-29 13:10:00+00:00,215.0948,9.94,14.48,47.84626,-54.09684
2019-06-29 13:20:00+00:00,208.2298,10.14,14.56,47.84626,-54.09684
2019-06-29 13:30:00+00:00,207.0765,10.2,14.56,47.84626,-54.09684
2019-06-29 13:40:00+00:00,206.7314,10.1,14.56,47.84626,-54.09684
2019-06-29 13:50:00+00:00,203.3931,10.29,14.56,47.84626,-54.09684
2019-06-29 14:00:00+00:00,201.2597,10.3,14.48,47.84626,-54.09684
2019-06-29 14:10:00+00:00,200.4583,10.3,14.48,47.84626,-54.09684
2019-06-29 14:20:00+00:00,200.0231,10.4,14.56,47.84626,-54.09684
2019-06-29 14:30:00+00:00,203.7781,10.3,14.48,47.84626,-54.09684
2019-06-29 14:40:00+00:00,206.7048,10.0,14.4,47.84626,-54.09684
2019-06-29 14:50:00+00:00,203.3097,10.2,14.48,47.84626,-54.09684
2019-06-29 15:00:00+00:00,202.7281,10.2,14.4,47.84626,-54.09684
2019-06-29 15:10:00+00:00,207.4914,10.0,14.32,47.84626,-54.09684
2019-06-29 15:20:00+00:00,208.4098,10.0,14.32,47.84626,-54.09684
2019-06-29 15:30:00+00:00,206.0081,9.9,14.32,47.84626,-54.09684
2019-06-29 15:40:00+00:00,209.6498,9.84,14.32,47.84626,-54.09684
2019-06-29 15:50:00+00:00,215.2865,9.8,14.24,47.84626,-54.09684
2019-06-29 16:00:00+00:00,215.9583,9.6,14.24,47.84626,-54.09684
2019-06-29 16:10:00+00:00,218.9114,9.27,14.08,47.84626,-54.09684
2019-06-29 16:20:00+00:00,224.9798,9.18,14.32,47.84626,-54.09684
2019-06-29 16:30:00+00:00,228.6363,9.43,14.32,47.84626,-54.09684
2019-06-29 16:40:00+00:00,229.0231,9.6,14.32,47.84626,-54.09684
2019-06-29 16:50:00+00:00,233.4098,9.5,14.24,47.84626,-54.09684
2019-06-29 17:00:00+00:00,241.5114,9.67,14.16,47.84626,-54.09684
2019-06-29 17:10:00+00:00,243.2964,9.7,14.0,47.84626,-54.09684
2019-06-29 17:20:00+00:00,243.9831,9.6,14.16,47.84626,-54.09684
2019-06-29 17:30:00+00:00,248.4114,9.4,14.16,47.84626,-54.09684
2019-06-29 17:40:00+00:00,257.0331,9.56,14.16,47.84626,-54.09684
2019-06-29 17:50:00+00:00,262.7664,9.4,14.16,47.84626,-54.09684
2019-06-29 18:00:00+00:00,267.3164,9.4,14.0,47.84626,-54.09684
2019-06-29 18:10:00+00:00,273.7798,9.4,13.92,47.84626,-54.09684
2019-06-29 18:20:00+00:00,279.1364,9.4,14.0,47.84626,-54.09684
2019-06-29 18:30:00+00:00,283.9347,9.4,14.0,47.84626,-54.09684
2019-06-29 18:40:00+00:00,288.6547,9.39,14.08,47.84626,-54.09684
2019-06-29 18:50:00+00:00,294.598,9.4,14.08,47.84626,-54.09684
2019-06-29 19:00:00+00:00,300.1196,9.4,14.0,47.84626,-54.09684
2019-06-29 19:10:00+00:00,304.0431,9.37,13.92,47.84626,-54.09684
2019-06-29 19:20:00+00:00,307.9396,9.36,14.0,47.84626,-54.09684
2019-06-29 19:30:00+00:00,313.8763,9.38,14.0,47.84626,-54.09684
2019-06-29 19:40:00+00:00,320.3096,9.38,14.0,47.84626,-54.09684
2019-06-29 19:50:00+00:00,324.3831,9.34,14.0,47.84626,-54.09684
2019-06-29 20:00:00+00:00,324.9979,9.39,14.0,47.84626,-54.09684
2019-06-29 20:10:00+00:00,330.4064,9.62,13.84,47.84626,-54.09684
2019-06-29 20:20:00+00:00,336.6363,9.78,14.0,47.84626,-54.09684
2019-06-29 20:30:00+00:00,338.5112,9.6,13.92,47.84626,-54.09684
2019-06-29 20:40:00+00:00,337.148,9.43,13.92,47.84626,-54.09684
2019-06-29 20:50:00+00:00,338.2714,9.36,13.92,47.84626,-54.09684
2019-06-29 21:00:00+00:00,339.3264,9.61,13.84,47.84626,-54.09684
2019-06-29 21:10:00+00:00,336.4014,10.14,13.68,47.84626,-54.09684
2019-06-29 21:20:00+00:00,334.8245,10.93,13.68,47.84626,-54.09684
2019-06-29 21:30:00+00:00,338.2829,11.74,13.68,47.84626,-54.09684
2019-06-29 21:40:00+00:00,338.2396,12.78,13.68,47.84626,-54.09684
2019-06-29 21:50:00+00:00,336.2747,13.08,13.68,47.84626,-54.09684
2019-06-29 22:00:00+00:00,337.7346,13.38,13.6,47.84626,-54.09684
2019-06-29 22:10:00+00:00,339.4382,14.02,13.44,47.84626,-54.09684
2019-06-29 22:20:00+00:00,336.1696,14.29,13.44,47.84626,-54.09684
2019-06-29 22:30:00+00:00,330.8331,14.17,13.44,47.84626,-54.09684
2019-06-29 22:40:00+00:00,328.9313,14.33,13.44,47.84626,-54.09684
2019-06-29 22:50:00+00:00,326.968,14.49,13.44,47.84626,-54.09684
2019-06-29 23:00:00+00:00,320.4163,14.41,13.37,47.84626,-54.09684
2019-06-29 23:10:00+00:00,312.9014,14.51,13.21,47.84626,-54.09684
2019-06-29 23:20:00+00:00,306.508,14.6,13.21,47.84626,-54.09684
2019-06-29 23:30:00+00:00,299.9864,14.63,13.13,47.84626,-54.09684
2019-06-29 23:40:00+00:00,293.5431,14.6,13.13,47.84626,-54.09684
2019-06-29 23:50:00+00:00,285.9446,14.69,13.13,47.84626,-54.09684
